This demonstration page uses our WeatherBlox Daily Observations layout. Learn more.

Left ArrowRight Arrow

Hourly Observations for September 13, 2021

Temp ( °F °C ) Dew Point ( °F °C ) Humidity (%) Winds ( mph kmh ) Pressure ( in mb ) Visibility ( mi km ) Precip ( " mm )
12:51 am 00:51 Clear 71 21.7 48 8.9 44 44 NE 3 6 29.83 1010 10 16 N/A
1:51 am 01:51 Clear 67 19.4 50 10 55 55 N N/A 29.83 1010 10 16 N/A
2:51 am 02:51 Clear 69 20.6 49 9.4 49 49 N N/A 29.81 1010 10 16 N/A
3:51 am 03:51 Clear 65 18.3 50 10 59 59 N N/A 29.82 1010 10 16 N/A
4:51 am 04:51 Clear 64 17.8 51 10.6 63 63 N N/A 29.83 1010 10 16 N/A
5:51 am 05:51 Clear 63 17.2 50 10 63 63 N N/A 29.85 1011 10 16 N/A
6:51 am 06:51 Sunny 67 19.4 52 11.1 59 59 N N/A 29.87 1012 10 16 N/A
7:51 am 07:51 Sunny 76 24.4 51 10.6 42 42 N N/A 29.88 1012 10 16 N/A
8:51 am 08:51 Sunny 83 28.3 51 10.6 33 33 VRB 6 9 29.87 1012 10 16 N/A
9:51 am 09:51 Sunny 88 31.1 47 8.3 24 24 SE 10 17 29.87 1011 10 16 N/A
10:51 am 10:51 Sunny 90 32.2 46 7.8 22 22 VRB 6 9 29.85 1011 10 16 N/A
11:51 am 11:51 Sunny 93 33.9 46 7.8 20 20 VRB 3 6 29.83 1010 10 16 N/A
12:51 pm 12:51 Sunny 96 35.6 49 9.4 20 20 VRB 5 7 29.79 1009 10 16 N/A
1:51 pm 13:51 Sunny 98 36.7 49 9.4 19 19 NNW 6 9 29.76 1008 10 16 N/A
2:51 pm 14:51 Sunny 99 37.2 46 7.8 16 16 VRB 6 9 29.73 1007 10 16 N/A
3:51 pm 15:51 Sunny 99 37.2 44 6.7 15 15 VRB 6 9 29.72 1006 10 16 N/A
4:51 pm 16:51 Sunny 98 36.7 45 7.2 16 16 W 9 15 29.72 1006 10 16 N/A
5:51 pm 17:51 Sunny 95 35 46 7.8 19 19 W 6 9 29.72 1007 10 16 N/A
6:51 pm 18:51 Clear 86 30 48 8.9 27 27 WNW 7 11 29.73 1007 10 16 N/A
7:51 pm 19:51 Clear 80 26.7 49 9.4 34 34 W 10 17 29.73 1007 10 16 N/A
8:51 pm 20:51 Clear 83 28.3 46 7.8 27 27 NW 12 19 29.74 1007 10 16 N/A
9:51 pm 21:51 Clear 79 26.1 47 8.3 32 32 WNW 8 13 29.75 1007 10 16 N/A
10:51 pm 22:51 Clear 74 23.3 49 9.4 41 41 NNW 6 9 29.76 1008 10 16 N/A
11:51 pm 23:51 Clear 75 23.9 49 9.4 40 40 NNW 6 9 29.75 1008 10 16 N/A

Powered by AerisWeather